Fergus Falls, MN

5:39 PM CST on November 16, 2019 (GMT -0600)
Fergus Falls Municipal-Mickelson

Weather History for KFFM - September, 2019

Change the Weather History Date:

Wednesday, September 11, 2019

  Actual Average Record
Temperature  
Mean Temperature 60 °F -  
Max Temperature 64 °F 73 °F 95 °F (1978)
Min Temperature 55 °F 49 °F 30 °F (1955)
Degree Days  
Heating Degree Days 6    
Growing Degree Days 10 (Base 50)    
Moisture  
Dew Point 54 °F    
Average Humidity 82    
Maximum Humidity 94    
Minimum Humidity 73    
Precipitation  
Precipitation 0.00 in - - ()
Sea Level Pressure  
Sea Level Pressure 30.09 in    
Wind  
Wind Speed 8 mph ()    
Max Wind Speed 17 mph    
Max Gust Speed 25 mph    
Visibility 10.0 miles    
Events Rain    
Averages and records for this station are not official NWS values.
T = Trace of Precipitation, MM = Missing Value Source: Averaged Metar Reports

Daily Weather History Graph

Daily Weather History Graph

Search for Another Location

Airport or City:

Astronomy

Sep. 11, 2019 Rise Set
Actual Time 6:57 AM CDT 7:44 PM CDT
Civil Twilight 6:26 AM CDT 8:14 PM CDT
Nautical Twilight 5:50 AM CDT 8:50 PM CDT
Astronomical Twilight 5:12 AM CDT 9:28 PM CDT
Moon 7:07 PM CDT (9/11) 4:08 AM CDT (9/11)
Length of Visible Light 13h 47m
Length of Day
12h 46m
Waxing Gibbous, 95% of the Moon is Illuminated
Sep 11
Waxing Gibbous
Sep 13
Full
Sep 21
Last Quarter
Sep 28
New
Oct 5
First Quarter

Hourly Weather History & Observations

Time (CDT) Temp. Dew Point Humidity Pressure Visibility Wind Dir Wind Speed Gust Speed Precip Events Conditions
12:16 AM 57.2 °F 53.6 °F 88% 30.11 in 10.0 mi ESE 3.5 mph - N/A Rain Light Rain
12:35 AM 57.2 °F 53.6 °F 88% 30.10 in 10.0 mi ENE 5.8 mph - N/A Rain Light Rain
12:36 AM 57.2 °F 53.6 °F 88% 30.10 in 10.0 mi ENE 5.8 mph - N/A Rain Light Rain
12:55 AM 57.2 °F 53.6 °F 88% 30.10 in 10.0 mi ENE 5.8 mph - N/A Rain Light Rain
12:59 AM 57.2 °F 53.6 °F 88% 30.10 in 10.0 mi East 5.8 mph - N/A Rain Light Rain
1:16 AM 57.2 °F 53.6 °F 88% 30.09 in 10.0 mi East 8.1 mph - N/A Rain Light Rain
1:37 AM 57.2 °F 53.6 °F 88% 30.07 in 10.0 mi East 8.1 mph - N/A   Scattered Clouds
1:55 AM 57.2 °F 53.6 °F 88% 30.05 in 10.0 mi ENE 9.2 mph - N/A   Mostly Cloudy
2:15 AM 57.2 °F 53.6 °F 88% 30.05 in 10.0 mi East 6.9 mph - N/A   Mostly Cloudy
2:16 AM 57.2 °F 53.6 °F 88% 30.05 in 10.0 mi East 6.9 mph - N/A   Mostly Cloudy
2:38 AM 57.2 °F 53.6 °F 88% 30.04 in 10.0 mi East 9.2 mph - N/A   Overcast
2:57 AM 57.2 °F 53.6 °F 88% 30.02 in 10.0 mi East 10.4 mph - N/A   Overcast
3:35 AM 57.2 °F 53.6 °F 88% 30.02 in 10.0 mi East 5.8 mph - N/A   Overcast
3:36 AM 57.2 °F 53.6 °F 88% 30.02 in 10.0 mi East 5.8 mph - N/A   Overcast
3:55 AM 57.2 °F 53.6 °F 88% 30.05 in 10.0 mi Calm Calm - N/A   Overcast
3:59 AM 57.2 °F 53.6 °F 88% 30.06 in 10.0 mi SSE 3.5 mph - N/A   Overcast
4:16 AM 57.2 °F 53.6 °F 88% 30.06 in 10.0 mi Calm Calm - N/A   Overcast
4:35 AM 57.2 °F 53.6 °F 88% 30.07 in 10.0 mi NE 3.5 mph - N/A   Overcast
4:55 AM 57.2 °F 53.6 °F 88% 30.09 in 10.0 mi East 3.5 mph - N/A   Overcast
4:56 AM 57.2 °F 53.6 °F 88% 30.09 in 10.0 mi East 3.5 mph - N/A   Overcast
5:15 AM 57.2 °F 53.6 °F 88% 30.08 in 10.0 mi NE 6.9 mph - N/A   Overcast
5:19 AM 57.2 °F 53.6 °F 88% 30.08 in 10.0 mi ENE 8.1 mph - N/A   Overcast
5:37 AM 57.2 °F 53.6 °F 88% 30.06 in 10.0 mi East 10.4 mph 18.4 mph N/A   Overcast
5:55 AM 57.2 °F 53.6 °F 88% 30.06 in 10.0 mi ENE 9.2 mph - N/A   Overcast
6:15 AM 57.2 °F 53.6 °F 88% 30.06 in 10.0 mi ENE 9.2 mph - N/A   Mostly Cloudy
6:16 AM 57.2 °F 53.6 °F 88% 30.06 in 10.0 mi ENE 9.2 mph - N/A   Mostly Cloudy
6:35 AM 57.2 °F 53.6 °F 88% 30.06 in 10.0 mi ENE 9.2 mph - N/A   Scattered Clouds
6:36 AM 57.2 °F 53.6 °F 88% 30.06 in 10.0 mi ENE 8.1 mph - N/A   Scattered Clouds
6:59 AM 55.4 °F 53.6 °F 94% 30.07 in 10.0 mi ENE 6.9 mph - N/A   Scattered Clouds
7:16 AM 55.4 °F 53.6 °F 94% 30.07 in 10.0 mi ENE 10.4 mph - N/A   Overcast
7:36 AM 57.2 °F 53.6 °F 88% 30.08 in 10.0 mi ENE 9.2 mph - N/A   Overcast
7:55 AM 57.2 °F 53.6 °F 88% 30.08 in 10.0 mi ENE 8.1 mph - N/A   Mostly Cloudy
8:15 AM 57.2 °F 53.6 °F 88% 30.08 in 10.0 mi ENE 8.1 mph - N/A   Mostly Cloudy
8:19 AM 57.2 °F 53.6 °F 88% 30.09 in 10.0 mi East 6.9 mph - N/A   Mostly Cloudy
8:37 AM 57.2 °F 53.6 °F 88% 30.09 in 10.0 mi ENE 5.8 mph - N/A   Scattered Clouds
8:56 AM 57.2 °F 53.6 °F 88% 30.09 in 10.0 mi ENE 8.1 mph - N/A   Scattered Clouds
9:15 AM 59.0 °F 53.6 °F 82% 30.10 in 10.0 mi East 9.2 mph - N/A   Scattered Clouds
9:16 AM 59.0 °F 53.6 °F 82% 30.10 in 10.0 mi East 8.1 mph - N/A   Scattered Clouds
9:35 AM 59.0 °F 53.6 °F 82% 30.09 in 10.0 mi ENE 12.7 mph - N/A   Clear
9:36 AM 59.0 °F 53.6 °F 82% 30.09 in 10.0 mi East 12.7 mph - N/A   Clear
9:59 AM 60.8 °F 53.6 °F 77% 30.10 in 10.0 mi ENE 12.7 mph - N/A   Scattered Clouds
10:16 AM 60.8 °F 55.4 °F 82% 30.10 in 10.0 mi ENE 9.2 mph - N/A   Scattered Clouds
10:36 AM 60.8 °F 55.4 °F 82% 30.09 in 10.0 mi ENE 15.0 mph 19.6 mph N/A   Clear
10:55 AM 62.6 °F 55.4 °F 77% 30.08 in 10.0 mi East 10.4 mph - N/A   Clear
11:15 AM 62.6 °F 55.4 °F 77% 30.08 in 10.0 mi East 10.4 mph 16.1 mph N/A   Clear
11:19 AM 62.6 °F 55.4 °F 77% 30.08 in 10.0 mi East 10.4 mph 16.1 mph N/A   Clear
11:37 AM 62.6 °F 55.4 °F 77% 30.09 in 10.0 mi East 8.1 mph - N/A   Clear
11:56 AM 64.4 °F 57.2 °F 77% 30.09 in 10.0 mi East 9.2 mph - N/A   Clear
12:15 PM 64.4 °F 57.2 °F 77% 30.08 in 10.0 mi East 10.4 mph - N/A   Clear
12:16 PM 64.4 °F 57.2 °F 77% 30.08 in 10.0 mi ENE 12.7 mph - N/A   Clear
12:35 PM 64.4 °F 57.2 °F 77% 30.09 in 10.0 mi ENE 15.0 mph 18.4 mph N/A   Clear
12:36 PM 64.4 °F 55.4 °F 73% 30.09 in 10.0 mi ENE 13.8 mph - N/A   Clear
12:58 PM 64.4 °F 57.2 °F 77% 30.10 in 10.0 mi East 12.7 mph 19.6 mph N/A   Scattered Clouds
1:17 PM 64.4 °F 57.2 °F 77% 30.10 in 10.0 mi East 10.4 mph - N/A   Scattered Clouds
1:36 PM 64.4 °F 57.2 °F 77% 30.11 in 10.0 mi East 11.5 mph - N/A   Scattered Clouds
1:56 PM 64.4 °F 55.4 °F 73% 30.11 in 10.0 mi East 10.4 mph - N/A   Mostly Cloudy
2:15 PM 64.4 °F 57.2 °F 77% 30.11 in 10.0 mi East 8.1 mph - N/A   Scattered Clouds
2:38 PM 64.4 °F 57.2 °F 77% 30.11 in 10.0 mi ENE 12.7 mph - N/A   Overcast
2:55 PM 64.4 °F 55.4 °F 73% 30.12 in 10.0 mi ENE 11.5 mph - N/A   Overcast
3:15 PM 64.4 °F 55.4 °F 73% 30.12 in 10.0 mi East 5.8 mph 9.2 mph N/A   Overcast
3:16 PM 64.4 °F 55.4 °F 73% 30.12 in 10.0 mi East 6.9 mph - N/A   Overcast
3:35 PM 64.4 °F 57.2 °F 77% 30.11 in 10.0 mi East 9.2 mph - N/A   Overcast
3:58 PM 64.4 °F 57.2 °F 77% 30.11 in 10.0 mi East 10.4 mph - N/A   Overcast
4:17 PM 64.4 °F 57.2 °F 77% 30.11 in 10.0 mi ESE 5.8 mph - N/A   Overcast
4:35 PM 64.4 °F 55.4 °F 73% 30.11 in 10.0 mi ESE 11.5 mph - N/A   Overcast
4:56 PM 64.4 °F 55.4 °F 73% 30.11 in 10.0 mi East 8.1 mph - N/A   Overcast
5:15 PM 64.4 °F 55.4 °F 73% 30.11 in 10.0 mi ESE 10.4 mph - N/A   Overcast
5:19 PM 64.4 °F 55.4 °F 73% 30.11 in 10.0 mi East 8.1 mph - N/A   Overcast
5:38 PM 62.6 °F 55.4 °F 77% 30.11 in 10.0 mi East 5.8 mph - N/A   Overcast
5:56 PM 62.6 °F 55.4 °F 77% 30.11 in 10.0 mi East 5.8 mph - N/A   Overcast
6:16 PM 62.6 °F 55.4 °F 77% 30.11 in 10.0 mi East 6.9 mph - N/A   Overcast
6:35 PM 62.6 °F 55.4 °F 77% 30.11 in 10.0 mi East 8.1 mph - N/A   Overcast
6:36 PM 62.6 °F 55.4 °F 77% 30.11 in 10.0 mi East 6.9 mph - N/A   Overcast
6:59 PM 60.8 °F 55.4 °F 82% 30.10 in 10.0 mi East 9.2 mph 20.7 mph N/A   Overcast
7:17 PM 60.8 °F 55.4 °F 82% 30.11 in 10.0 mi East 9.2 mph 16.1 mph N/A   Overcast
7:36 PM 60.8 °F 53.6 °F 77% 30.11 in 10.0 mi East 11.5 mph 18.4 mph N/A   Overcast
7:55 PM 60.8 °F 53.6 °F 77% 30.11 in 10.0 mi East 11.5 mph 17.3 mph N/A   Overcast
7:56 PM 60.8 °F 53.6 °F 77% 30.11 in 10.0 mi East 12.7 mph 17.3 mph N/A   Overcast
8:15 PM 60.8 °F 53.6 °F 77% 30.11 in 10.0 mi East 10.4 mph 18.4 mph N/A   Overcast
8:37 PM 60.8 °F 53.6 °F 77% 30.11 in 10.0 mi East 6.9 mph - N/A   Overcast
8:56 PM 59.0 °F 53.6 °F 82% 30.12 in 10.0 mi East 6.9 mph - N/A   Overcast
9:15 PM 59.0 °F 53.6 °F 82% 30.11 in 10.0 mi East 15.0 mph 20.7 mph N/A   Overcast
9:16 PM 59.0 °F 53.6 °F 82% 30.11 in 10.0 mi East 17.3 mph 25.3 mph N/A   Overcast
9:35 PM 57.2 °F 53.6 °F 88% 30.11 in 10.0 mi East 12.7 mph 19.6 mph N/A   Overcast
9:36 PM 57.2 °F 53.6 °F 88% 30.10 in 10.0 mi East 13.8 mph 20.7 mph N/A   Overcast
9:58 PM 57.2 °F 53.6 °F 88% 30.10 in 10.0 mi East 13.8 mph 20.7 mph N/A   Overcast
10:16 PM 57.2 °F 53.6 °F 88% 30.10 in 10.0 mi East 11.5 mph 18.4 mph N/A   Overcast
10:35 PM 57.2 °F 51.8 °F 82% 30.10 in 10.0 mi East 10.4 mph 18.4 mph N/A   Overcast
10:36 PM 57.2 °F 51.8 °F 82% 30.10 in 10.0 mi East 10.4 mph 18.4 mph N/A   Overcast
10:55 PM 57.2 °F 51.8 °F 82% 30.09 in 10.0 mi ESE 10.4 mph 24.2 mph N/A   Overcast
11:15 PM 57.2 °F 51.8 °F 82% 30.09 in 10.0 mi East 10.4 mph 16.1 mph N/A   Overcast
11:19 PM 57.2 °F 51.8 °F 82% 30.09 in 10.0 mi East 10.4 mph 17.3 mph N/A   Overcast
11:56 PM 55.4 °F 51.8 °F 88% 30.07 in 10.0 mi East 9.2 mph 18.4 mph N/A   Overcast